Location: St. Andrews
(45.0670°N, 67.0330°W)
Time: 05:26:02
(UTC-03:00)

Amateur Radio Satellites - All Passes

Search period start: 05 August 2015 04:56
Search period end: 06 August 2015 04:56
Location: St. Andrews, 45.0670°N, 67.0330°W

Satellite Date Start Highest point End Downlink Frequencies (MHz)
Time Altitude Azimuth
JAS-2 05 Aug 05:02:55 05:10:51 85° 286° (WNW) 05:18:33 435.910
CUSAT 1 05 Aug 05:05:25 05:07:56 39° 284° (WNW) 05:10:26 437.405
RS-15 05 Aug 05:11:02 05:22:14 50° 38° (NE) 05:33:58 29.354- 29.394
Cosmos 2504 05 Aug 05:11:12 05:17:00 23° 299° (WNW) 05:22:53 435.465 / 435.565
HORYU 2 05 Aug 05:11:24 05:15:48 49° 99° (E) 05:20:11 437.375
STARS 05 Aug 05:16:12 05:18:55 15° 270° (W) 05:21:28 437.465
DANDE 05 Aug 05:16:14 05:19:03 55° 282° (WNW) 05:21:38 436.750
MOZHAYETS 4 05 Aug 05:37:12 05:41:39 44° 262° (W) 05:46:08
GONETS M04 05 Aug 05:55:07 06:03:07 44° 88° (E) 06:11:14
CUBESAT XI-V 05 Aug 06:06:27 06:10:41 36° 70° (ENE) 06:14:58 437.345
ITAMSAT 1 05 Aug 06:15:06 06:15:44 10° 305° (NW) 06:16:04 435.822/435.867
CUTE-I 05 Aug 06:32:45 06:35:24 14° 87° (E) 06:38:20 437.470
Cosmos 2499 05 Aug 06:34:54 06:39:13 17° 77° (ENE) 06:44:09 435.465 / 435.565
STRAND 1 05 Aug 06:43:46 06:48:12 31° 66° (ENE) 06:52:43 437.568
BEESAT 2 05 Aug 06:46:44 06:49:42 19° 38° (NE) 06:52:42 435.950
AO-7 05 Aug 06:47:39 06:55:39 51° 298° (WNW) 07:03:32 29.400- 29.500
HORYU 2 05 Aug 06:48:50 06:52:07 20° 296° (WNW) 06:55:16 437.375
JAS-2 05 Aug 06:49:10 06:54:55 22° 304° (NW) 07:00:24 435.910
PRISM 05 Aug 06:55:04 06:58:32 27° 67° (ENE) 07:02:05 437.425
AIST 2 05 Aug 07:12:13 07:13:48 12° 29° (NNE) 07:15:29 435.215
Cubesat XI-IV 05 Aug 07:16:37 07:21:28 35° 96° (E) 07:26:20 437.490
BEESAT 3 05 Aug 07:19:40 07:23:31 40° 48° (NE) 07:27:19 437.485
RS-15 05 Aug 07:23:44 07:35:18 64° 243° (WSW) 07:47:11 29.354- 29.394
CUBESAT XI-V 05 Aug 07:44:16 07:48:13 26° 267° (W) 07:52:06 437.345
GONETS M04 05 Aug 07:51:46 08:00:02 45° 289° (WNW) 08:08:14
PCSat 05 Aug 07:54:47 07:57:55 16° 106° (ESE) 08:01:16 145.827
CUTE-I 05 Aug 08:10:54 08:16:14 80° 287° (WNW) 08:21:33 437.470
BRITE-PL 05 Aug 08:15:45 08:18:54 19° 92° (E) 08:22:20 437.365/2234.400
STRAND 1 05 Aug 08:22:35 08:27:20 37° 263° (W) 08:32:05 437.568
Cosmos 2499 05 Aug 08:23:34 08:31:07 86° 97° (E) 08:39:23 435.465 / 435.565
BEESAT 2 05 Aug 08:24:06 08:28:09 63° 238° (WSW) 08:32:07 435.950
SO-50 05 Aug 08:26:12 08:29:57 24° 113° (ESE) 08:33:52 436.795
PRISM 05 Aug 08:30:13 08:33:54 29° 264° (W) 08:37:34 437.425
AO-7 05 Aug 08:42:38 08:46:40 14° 319° (NW) 08:50:20 29.400- 29.500
AIST 2 05 Aug 08:49:09 08:53:19 57° 51° (NE) 08:57:24 435.215
Cubesat XI-IV 05 Aug 08:56:46 09:01:33 34° 294° (WNW) 09:06:15 437.490
BEESAT 3 05 Aug 08:58:02 09:01:15 22° 246° (WSW) 09:04:20 437.485
DOVE 4 05 Aug 09:07:50 09:11:40 25° 93° (E) 09:15:45 437.250
M-CUBED/EXP-1 PRIME 05 Aug 09:08:09 09:11:47 28° 60° (ENE) 09:15:41 437.505
SEEDS 05 Aug 09:16:09 09:18:50 17° 90° (E) 09:21:39 437.485
CUTE 1.7 + AOD 2 05 Aug 09:25:45 09:29:20 26° 93° (E) 09:32:57 437.475
YUBILEINY 05 Aug 09:26:32 09:28:51 11° 46° (NE) 09:31:48 435.215
HO-68 05 Aug 09:27:47 09:34:18 37° 96° (E) 09:40:54 435.675
AAUSAT CUBESAT 2 05 Aug 09:31:07 09:33:39 16° 89° (E) 09:36:20 437.432
AUBIESAT-1 05 Aug 09:32:36 09:36:35 40° 64° (ENE) 09:40:53 437.475
CANX-2 05 Aug 09:34:37 09:38:34 35° 96° (E) 09:42:32 2200.000
PCSat 05 Aug 09:35:20 09:40:44 79° 302° (WNW) 09:46:13 145.827
RS-15 05 Aug 09:39:40 09:45:46 15° 263° (W) 09:50:53 29.354- 29.394
GOMX 1 05 Aug 09:40:49 09:45:26 79° 101° (ESE) 09:50:25 467.674
Oscar 11 05 Aug 09:48:48 09:50:08 11° 86° (E) 09:51:43 145.826/435.025
CUTE-I 05 Aug 09:53:05 09:55:34 13° 304° (WNW) 09:57:48 437.470
BRITE-PL 05 Aug 09:53:23 09:57:41 48° 288° (WNW) 10:02:18 437.365/2234.400
UWE-3 05 Aug 09:57:47 09:59:57 13° 87° (E) 10:02:21 435.000/436.395/437.385
O/OREOS (USA 219) 05 Aug 10:00:32 10:03:52 20° 51° (NE) 10:07:18 437.305
UNISAT 6 05 Aug 10:05:21 10:08:37 21° 64° (ENE) 10:12:02 437.425
SO-50 05 Aug 10:05:29 10:10:12 52° 312° (NW) 10:15:02 436.795
Cosmos 2499 05 Aug 10:19:49 10:25:39 22° 302° (WNW) 10:31:31 435.465 / 435.565
DELFI C3 05 Aug 10:20:18 10:22:46 16° 90° (E) 10:25:22 145.870
CINEMA 3 05 Aug 10:20:47 10:25:29 58° 100° (E) 10:30:22 145.822/145.860
CUBEBUG 2 05 Aug 10:21:32 10:25:36 29° 94° (E) 10:29:47 437.445
COMPASS 1 05 Aug 10:27:59 10:32:15 77° 102° (ESE) 10:36:26 437.405
AIST 2 05 Aug 10:28:47 10:31:29 16° 248° (WSW) 10:34:02 435.215
BUGSAT 1 05 Aug 10:40:40 10:41:32 11° 61° (ENE) 10:42:37 437.445
M-CUBED/EXP-1 PRIME 05 Aug 10:42:33 10:46:26 34° 260° (W) 10:50:34 437.505
POLYITAN 1 05 Aug 10:43:44 10:46:44 20° 65° (ENE) 10:49:51 437.675
DOVE 4 05 Aug 10:45:09 10:49:33 41° 289° (WNW) 10:54:10 437.250
TIGRISAT 05 Aug 10:45:34 10:49:47 48° 71° (ENE) 10:54:09 435.000
ANTELSAT 05 Aug 10:49:19 10:53:36 55° 73° (ENE) 10:58:04 437.575/2403.000
SEEDS 05 Aug 10:50:49 10:54:57 48° 288° (WNW) 10:59:01 437.485
ZACube-1 05 Aug 10:58:12 11:02:32 41° 97° (E) 11:06:53 437.345
POPSAT HIP 1 05 Aug 10:58:18 11:01:48 26° 68° (ENE) 11:05:22 437.405
CUTE 1.7 + AOD 2 05 Aug 11:01:27 11:05:17 31° 291° (WNW) 11:09:02 437.475
AAUSAT CUBESAT 2 05 Aug 11:05:31 11:09:35 48° 288° (WNW) 11:13:36 437.432
QB50P2 05 Aug 11:06:53 11:10:39 33° 69° (ENE) 11:14:29 145.880/145.840
HUMSAT D 05 Aug 11:07:34 11:10:51 21° 92° (E) 11:14:13 437.325/437.525
AUBIESAT-1 05 Aug 11:08:03 11:11:29 23° 264° (W) 11:15:00 437.475
CANX-2 05 Aug 11:10:51 11:14:20 24° 293° (WNW) 11:17:42 2200.000
HO-68 05 Aug 11:15:22 11:22:14 49° 295° (WNW) 11:29:02 435.675
FUNcube-1 05 Aug 11:17:39 11:22:11 63° 101° (E) 11:26:45 145.935
50 SAT 05 Aug 11:18:56 11:20:19 12° 88° (E) 11:21:55 437.505
YUBILEINY 05 Aug 11:19:58 11:28:31 52° 73° (ENE) 11:37:06 435.215
GOMX 1 05 Aug 11:20:44 11:23:08 14° 297° (WNW) 11:25:25 467.674
PCSat 05 Aug 11:21:23 11:25:06 18° 325° (NW) 11:28:43 145.827
Oscar 11 05 Aug 11:22:34 11:26:56 73° 285° (WNW) 11:31:15 145.826/435.025
UKube-1 05 Aug 11:25:12 11:28:14 19° 92° (E) 11:31:22 .
DUCHIFAT 1 05 Aug 11:25:44 11:29:46 49° 72° (ENE) 11:33:50 145.980
NANOSAT C BR1 05 Aug 11:31:51 11:35:57 59° 73° (ENE) 11:40:07 145.865
UWE-3 05 Aug 11:32:24 11:37:01 72° 285° (WNW) 11:41:42 435.000/436.395/437.385
QB50P1 05 Aug 11:32:33 11:36:41 61° 74° (ENE) 11:40:51 145.935-145.965
O/OREOS (USA 219) 05 Aug 11:39:11 11:43:41 55° 250° (WSW) 11:48:10 437.305
UNISAT 6 05 Aug 11:40:53 11:45:07 44° 262° (W) 11:49:27 437.425
SO-50 05 Aug 11:49:17 11:51:55 14° 334° (NNW) 11:54:28 436.795
DELFI C3 05 Aug 11:54:13 11:58:08 45° 288° (WNW) 12:01:59 145.870
AISAT 05 Aug 11:54:35 11:58:19 27° 94° (E) 12:02:06 437.250
CUBEBUG 1 05 Aug 11:54:54 11:57:26 16° 89° (E) 12:00:08 437.445
CUBEBUG 2 05 Aug 11:58:05 12:02:18 33° 291° (WNW) 12:06:31 437.445
Cosmos 2491 05 Aug 11:58:23 12:06:14 40° 87° (E) 12:14:13 435.465 / 435.565
CINEMA 3 05 Aug 11:58:58 12:02:20 19° 296° (WNW) 12:05:37 145.822/145.860
DX 1 05 Aug 11:59:47 12:03:59 47° 99° (E) 12:08:11 434.975-435.025
COMPASS 1 05 Aug 12:05:40 12:07:21 12° 299° (WNW) 12:08:49 437.405
BUGSAT 1 05 Aug 12:12:26 12:16:28 79° 257° (WSW) 12:20:31 437.445
POLYITAN 1 05 Aug 12:18:23 12:22:23 42° 262° (W) 12:26:24 437.675
AIST 1 05 Aug 12:23:04 12:27:22 72° 97° (E) 12:31:41
TIGRISAT 05 Aug 12:23:48 12:26:53 18° 270° (W) 12:29:53 435.000
ANTELSAT 05 Aug 12:28:01 12:30:49 16° 271° (W) 12:33:31 437.575/2403.000
VELOX 1 05 Aug 12:31:44 12:36:07 62° 101° (ESE) 12:40:30 145.980
POPSAT HIP 1 05 Aug 12:33:53 12:37:36 29° 265° (W) 12:41:18 437.405
ZACube-1 05 Aug 12:35:00 12:38:40 24° 294° (WNW) 12:42:16 437.345
HUMSAT D 05 Aug 12:42:41 12:46:45 39° 289° (WNW) 12:50:46 437.325/437.525
Oscar 19 05 Aug 12:43:06 12:46:32 19° 61° (ENE) 12:50:10 437.125/150
QB50P2 05 Aug 12:43:11 12:46:37 23° 267° (W) 12:49:59 145.880/145.840
50 SAT 05 Aug 12:51:24 12:55:21 61° 286° (WNW) 12:59:15 437.505
FUNcube-1 05 Aug 12:55:10 12:58:03 16° 297° (WNW) 13:00:49 145.935
Cosmos 2504 05 Aug 12:59:58 13:07:10 31° 65° (ENE) 13:14:40 435.465 / 435.565
UKube-1 05 Aug 13:00:29 13:04:37 43° 289° (WNW) 13:08:42 .
ESTCUBE 1 05 Aug 13:02:04 13:06:36 88° 284° (WNW) 13:11:04 437.505/2401.250
DUCHIFAT 1 05 Aug 13:03:14 13:05:54 16° 270° (W) 13:08:25 145.980
HO-68 05 Aug 13:06:16 13:08:25 11° 315° (NW) 13:10:12 435.675
NANOSAT C BR1 05 Aug 13:10:04 13:12:15 13° 272° (W) 13:14:14 145.865
QB50P1 05 Aug 13:10:57 13:13:02 13° 272° (W) 13:14:53 145.935-145.965
YUBILEINY 05 Aug 13:17:12 13:25:11 39° 274° (W) 13:33:01 435.215
CUBEBUG 1 05 Aug 13:29:57 13:34:11 53° 287° (WNW) 13:38:24 437.445
AISAT 05 Aug 13:30:58 13:34:56 32° 292° (WNW) 13:38:50 437.250
DX 1 05 Aug 13:36:49 13:39:56 19° 296° (WNW) 13:42:56 434.975-435.025
JAS-2 05 Aug 13:36:49 13:39:18 13° 47° (NE) 13:42:14 435.910
TISAT 1 05 Aug 13:40:27 13:44:24 37° 98° (E) 13:48:21 437.305
SPROUT 05 Aug 13:47:21 13:51:40 75° 102° (ESE) 13:55:59 437.525
Cosmos 2491 05 Aug 13:54:34 14:03:01 49° 288° (WNW) 14:11:24 435.465 / 435.565
CUSAT 1 05 Aug 13:54:53 13:57:05 14° 68° (ENE) 13:59:50 437.405
ITUPSAT 1 05 Aug 14:02:31 14:04:05 12° 86° (E) 14:05:56 437.325
AIST 1 05 Aug 14:03:53 14:05:38 12° 296° (WNW) 14:07:10
AO-7 05 Aug 14:07:34 14:12:31 18° 45° (NE) 14:17:46 29.400- 29.500
VELOX 1 05 Aug 14:09:33 14:12:14 16° 298° (WNW) 14:14:46 145.980
ITAMSAT 1 05 Aug 14:13:15 14:17:50 33° 67° (ENE) 14:22:31 435.822/435.867
Gurwin Techsat 1B 05 Aug 14:18:32 14:23:28 41° 68° (ENE) 14:28:28 435.225
Oscar 19 05 Aug 14:20:23 14:25:27 64° 258° (WSW) 14:30:35 437.125/150
ESTCUBE 1 05 Aug 14:41:21 14:42:49 11° 301° (WNW) 14:44:03 437.505/2401.250
Cosmos 2504 05 Aug 14:51:40 15:00:04 67° 267° (W) 15:08:34 435.465 / 435.565
BEESAT 05 Aug 14:53:22 14:57:49 38° 97° (E) 15:02:16 436.000
SWISSCUBE 05 Aug 15:14:30 15:19:16 67° 101° (E) 15:23:59 437.505
SO-50 05 Aug 15:15:40 15:17:35 12° 23° (NNE) 15:19:36 436.795
JAS-2 05 Aug 15:16:33 15:22:45 55° 68° (ENE) 15:29:49 435.910
TISAT 1 05 Aug 15:16:41 15:19:58 22° 294° (WNW) 15:23:10 437.305
SPROUT 05 Aug 15:25:15 15:27:13 13° 299° (WNW) 15:29:01 437.525
CUSAT 1 05 Aug 15:35:19 15:39:49 78° 261° (W) 15:45:52 437.405
ITUPSAT 1 05 Aug 15:37:54 15:42:43 82° 285° (WNW) 15:47:28 437.325
DANDE 05 Aug 15:50:01 15:54:04 85° 260° (W) 15:59:36 436.750
ITAMSAT 1 05 Aug 15:52:35 15:57:20 35° 264° (W) 16:02:04 435.822/435.867
AO-7 05 Aug 15:55:41 16:03:55 65° 66° (ENE) 16:12:12 29.400- 29.500
Gurwin Techsat 1B 05 Aug 15:59:01 16:03:36 28° 266° (W) 16:08:08 435.225
Cosmos 2491 05 Aug 16:00:53 16:02:48 10° 315° (NW) 16:04:06 435.465 / 435.565
GONETS M04 05 Aug 16:02:40 16:09:23 25° 60° (ENE) 16:16:23
KKS-1 05 Aug 16:04:31 16:08:37 35° 97° (E) 16:12:43 437.445
HORYU 2 05 Aug 16:11:20 16:15:43 58° 72° (ENE) 16:20:08 437.375
BEESAT 05 Aug 16:31:30 16:35:31 27° 295° (WNW) 16:39:26 436.000
PCSat 05 Aug 16:38:26 16:42:53 25° 41° (NE) 16:47:22 145.827
Cosmos 2504 05 Aug 16:46:50 16:50:54 14° 285° (WNW) 16:54:26 435.465 / 435.565
SWISSCUBE 05 Aug 16:53:36 16:56:39 17° 299° (WNW) 16:59:32 437.505
SO-50 05 Aug 16:54:49 16:59:31 40° 45° (NE) 17:04:09 436.795
STARS 05 Aug 17:01:33 17:06:00 83° 104° (ESE) 17:10:27 437.465
JAS-2 05 Aug 17:02:42 17:08:17 30° 271° (W) 17:14:22 435.910
Cubesat XI-IV 05 Aug 17:04:51 17:06:32 12° 55° (NE) 17:08:29 437.490
ITUPSAT 1 05 Aug 17:18:11 17:19:54 12° 302° (WNW) 17:21:23 437.325
VERMONT LUNAR 05 Aug 17:19:16 17:21:31 18° 160° (SSE) 17:23:50 437.305
MOZHAYETS 4 05 Aug 17:30:14 17:34:32 37° 96° (E) 17:38:48
KKS-1 05 Aug 17:41:23 17:45:07 26° 294° (WNW) 17:48:46 437.445
AO-7 05 Aug 17:50:02 17:57:20 31° 266° (W) 18:04:27 29.400- 29.500
HORYU 2 05 Aug 17:50:05 17:52:47 15° 271° (W) 17:55:20 437.375
CUTE-I 05 Aug 17:55:49 18:00:22 30° 65° (ENE) 18:05:01 437.470
GONETS M04 05 Aug 17:58:40 18:07:26 81° 263° (W) 18:16:10
Cosmos 2499 05 Aug 18:11:47 18:19:48 39° 68° (ENE) 18:28:00 435.465 / 435.565
PCSat 05 Aug 18:21:24 18:26:47 65° 243° (WSW) 18:32:08 145.827
SO-50 05 Aug 18:35:34 18:40:00 33° 244° (WSW) 18:44:17 436.795
STARS 05 Aug 18:40:00 18:41:52 12° 300° (WNW) 18:43:33 437.465
Cubesat XI-IV 05 Aug 18:40:27 18:45:47 71° 73° (ENE) 18:51:09 437.490
PHONESAT 2.4 05 Aug 18:53:55 18:56:13 17° 156° (SSE) 18:58:34 2401.200-2431.200
VERMONT LUNAR 05 Aug 18:54:51 18:57:46 34° 176° (S) 19:00:43 437.305
MOZHAYETS 4 05 Aug 19:07:45 19:11:37 26° 293° (WNW) 19:15:21
GOMX 1 05 Aug 19:17:09 19:18:10 11° 61° (ENE) 19:19:23 467.674
BRITE-PL 05 Aug 19:29:16 19:32:38 24° 68° (ENE) 19:36:03 437.365/2234.400
CUTE-I 05 Aug 19:35:16 19:40:20 41° 263° (W) 19:45:23 437.470
CUBESAT XI-V 05 Aug 19:37:53 19:42:30 68° 101° (E) 19:47:05 437.345
ISS 05 Aug 19:40:33 19:42:57 19° 137° (SE) 19:45:24 145.825
RS-15 05 Aug 19:43:06 19:49:02 17° 99° (E) 19:55:49 29.354- 29.394
GONETS M04 05 Aug 19:57:44 20:03:01 17° 283° (WNW) 20:07:51
HO-68 05 Aug 19:58:44 20:04:58 35° 61° (ENE) 20:11:20 435.675
Cosmos 2499 05 Aug 20:04:48 20:13:21 55° 269° (W) 20:21:50 435.465 / 435.565
PRISM 05 Aug 20:10:05 20:13:43 30° 96° (E) 20:17:23 437.425
SEEDS 05 Aug 20:10:30 20:13:07 16° 64° (ENE) 20:15:51 437.485
DOVE 4 05 Aug 20:16:09 20:19:37 26° 68° (ENE) 20:23:11 437.250
CUTE 1.7 + AOD 2 05 Aug 20:20:37 20:24:05 25° 67° (ENE) 20:27:39 437.475
Cubesat XI-IV 05 Aug 20:23:02 20:26:31 17° 272° (W) 20:29:46 437.490
AAUSAT CUBESAT 2 05 Aug 20:24:13 20:26:37 15° 64° (ENE) 20:29:12 437.432
CANX-2 05 Aug 20:29:23 20:33:13 33° 69° (ENE) 20:37:07 2200.000
PHONESAT 2.4 05 Aug 20:30:26 20:33:40 35° 172° (S) 20:36:55 2401.200-2431.200
STRAND 1 05 Aug 20:30:30 20:35:35 64° 101° (ESE) 20:40:39 437.568
VERMONT LUNAR 05 Aug 20:31:20 20:34:07 28° 192° (SSW) 20:36:53 437.305
Oscar 11 05 Aug 20:45:43 20:47:37 13° 61° (ENE) 20:49:41 145.826/435.025
GOMX 1 05 Aug 20:51:37 20:55:47 78° 257° (WSW) 20:59:58 467.674
UWE-3 05 Aug 20:57:34 20:59:39 14° 61° (ENE) 21:01:55 435.000/436.395/437.385
BRITE-PL 05 Aug 21:07:19 21:11:08 31° 264° (W) 21:14:50 437.365/2234.400
DELFI C3 05 Aug 21:09:59 21:12:06 14° 63° (ENE) 21:14:22 145.870
ISS 05 Aug 21:15:52 21:19:07 66° 333° (NNW) 21:22:22 145.825
CUBESAT XI-V 05 Aug 21:16:44 21:19:28 15° 298° (WNW) 21:22:01 437.345
COMPASS 1 05 Aug 21:20:41 21:24:53 67° 75° (ENE) 21:29:07 437.405
CUBEBUG 2 05 Aug 21:22:04 21:25:42 29° 68° (ENE) 21:29:29 437.445
CINEMA 3 05 Aug 21:24:48 21:28:55 63° 74° (ENE) 21:33:12 145.822/145.860
SEEDS 05 Aug 21:44:20 21:48:30 54° 260° (W) 21:52:44 437.485
HO-68 05 Aug 21:45:33 21:52:30 53° 260° (W) 21:59:29 435.675
PRISM 05 Aug 21:45:40 21:49:03 25° 293° (WNW) 21:52:21 437.425
RS-15 05 Aug 21:48:43 21:59:32 74° 119° (ESE) 22:10:50 29.354- 29.394
DOVE 4 05 Aug 21:53:46 21:57:22 28° 266° (W) 22:00:59 437.250
CUTE 1.7 + AOD 2 05 Aug 21:55:58 21:59:52 33° 264° (W) 22:03:47 437.475
ZACube-1 05 Aug 21:56:10 22:00:07 39° 70° (ENE) 22:04:12 437.345
AAUSAT CUBESAT 2 05 Aug 21:57:40 22:01:49 57° 260° (W) 22:06:00 437.432
HUMSAT D 05 Aug 22:01:34 22:04:35 20° 65° (ENE) 22:07:42 437.325/437.525
Cosmos 2499 05 Aug 22:03:01 22:04:46 10° 288° (WNW) 22:05:47 435.465 / 435.565
CANX-2 05 Aug 22:05:38 22:09:12 24° 267° (W) 22:12:43 2200.000
Cosmos 2491 05 Aug 22:06:02 22:12:23 23° 59° (ENE) 22:19:01 435.465 / 435.565
PHONESAT 2.4 05 Aug 22:08:02 22:11:16 34° 189° (S) 22:14:30 2401.200-2431.200
VERMONT LUNAR 05 Aug 22:09:26 22:10:13 11° 208° (SSW) 22:10:55 437.305
STRAND 1 05 Aug 22:10:47 22:14:22 19° 299° (WNW) 22:17:48 437.568
FUNcube-1 05 Aug 22:15:12 22:19:23 60° 73° (ENE) 22:23:42 145.935
Oscar 11 05 Aug 22:18:55 22:23:15 75° 258° (WSW) 22:27:38 145.826/435.025
BEESAT 2 05 Aug 22:20:55 22:23:05 14° 111° (ESE) 22:25:26 435.950
UKube-1 05 Aug 22:21:59 22:25:16 22° 65° (ENE) 22:28:38 .
M-CUBED/EXP-1 PRIME 05 Aug 22:22:11 22:25:13 17° 94° (E) 22:28:21 437.505
AIST 1 05 Aug 22:28:43 22:31:58 21° 70° (ENE) 22:35:19
ESTCUBE 1 05 Aug 22:29:29 22:31:35 14° 61° (ENE) 22:33:53 437.505/2401.250
UWE-3 05 Aug 22:31:25 22:35:38 68° 259° (W) 22:40:01 435.000/436.395/437.385
ANTELSAT 05 Aug 22:41:43 22:42:46 11° 85° (E) 22:44:07 437.575/2403.000
DELFI C3 05 Aug 22:42:43 22:46:44 58° 260° (W) 22:50:47 145.870
AUBIESAT-1 05 Aug 22:45:55 22:49:44 25° 97° (E) 22:53:31 437.475
BEESAT 3 05 Aug 22:51:23 22:55:07 37° 118° (ESE) 22:58:56 437.485
ISS 05 Aug 22:53:08 22:55:57 26° 353° (N) 22:58:46 145.825
CUBEBUG 1 05 Aug 22:53:10 22:56:01 18° 64° (ENE) 22:59:01 437.445
AISAT 05 Aug 22:54:14 22:58:05 31° 68° (ENE) 23:01:59 437.250
DX 1 05 Aug 22:57:07 23:01:20 53° 72° (ENE) 23:05:34 434.975-435.025
CUBEBUG 2 05 Aug 22:58:41 23:02:22 28° 266° (W) 23:06:07 437.445
COMPASS 1 05 Aug 22:59:19 23:01:04 12° 273° (W) 23:02:38 437.405
CINEMA 3 05 Aug 23:04:51 23:06:43 12° 274° (W) 23:08:23 145.822/145.860
UNISAT 6 05 Aug 23:30:35 23:34:51 34° 95° (E) 23:39:09 437.425
VELOX 1 05 Aug 23:31:00 23:35:23 71° 74° (ENE) 23:39:47 145.980
ZACube-1 05 Aug 23:33:25 23:36:41 21° 269° (W) 23:39:54 437.345
HUMSAT D 05 Aug 23:36:04 23:40:02 41° 262° (W) 23:44:05 437.325/437.525
50 SAT 05 Aug 23:36:33 23:40:28 85° 256° (WSW) 23:44:27 437.505
PHONESAT 2.4 05 Aug 23:46:29 23:48:42 16° 205° (SSW) 23:50:53 2401.200-2431.200
FUNcube-1 05 Aug 23:54:00 23:56:13 13° 273° (W) 23:58:16 145.935
BUGSAT 1 05 Aug 23:54:09 23:55:55 13° 89° (E) 23:57:54 437.445
M-CUBED/EXP-1 PRIME 05 Aug 23:55:40 00:00:26 62° 293° (WNW) 00:05:00 437.505
BEESAT 2 05 Aug 23:56:37 00:00:42 63° 308° (NW) 00:04:49 435.950
UKube-1 05 Aug 23:57:07 00:01:11 39° 262° (W) 00:05:15 .
POLYITAN 1 06 Aug 00:01:46 00:05:24 26° 94° (E) 00:09:05 437.675
Cosmos 2491 06 Aug 00:01:52 00:10:38 88° 263° (W) 00:19:22 435.465 / 435.565
RS-15 06 Aug 00:02:30 00:12:56 43° 327° (NNW) 00:23:44 29.354- 29.394
ESTCUBE 1 06 Aug 00:03:22 00:07:55 77° 259° (WSW) 00:12:28 437.505/2401.250
AIST 1 06 Aug 00:05:52 00:09:46 35° 268° (W) 00:13:37
TIGRISAT 06 Aug 00:11:25 00:16:10 82° 104° (ESE) 00:20:53 435.000
ANTELSAT 06 Aug 00:15:32 00:20:17 88° 284° (WNW) 00:25:01 437.575/2403.000
POPSAT HIP 1 06 Aug 00:16:25 00:20:23 36° 97° (E) 00:24:22 437.405
O/OREOS (USA 219) 06 Aug 00:16:49 00:18:43 13° 99° (E) 00:20:51 437.305
AUBIESAT-1 06 Aug 00:20:06 00:24:36 42° 296° (WNW) 00:28:52 437.475
YUBILEINY 06 Aug 00:23:11 00:31:32 55° 91° (E) 00:40:01 435.215
QB50P2 06 Aug 00:25:22 00:29:31 47° 99° (E) 00:33:40 145.880/145.840
AIST 2 06 Aug 00:26:41 00:30:53 63° 122° (ESE) 00:35:07 435.215
CUBEBUG 1 06 Aug 00:27:49 00:32:03 50° 261° (W) 00:36:17 437.445
BEESAT 3 06 Aug 00:29:36 00:33:09 27° 317° (NW) 00:36:41 437.485
ISS 06 Aug 00:30:03 00:32:59 30° 13° (NNE) 00:35:57 145.825
AISAT 06 Aug 00:30:53 00:34:41 27° 265° (W) 00:38:25 437.250
TISAT 1 06 Aug 00:34:25 00:38:15 36° 70° (ENE) 00:42:07 437.305
DX 1 06 Aug 00:35:13 00:37:57 16° 270° (W) 00:40:31 434.975-435.025
SPROUT 06 Aug 00:43:10 00:47:24 73° 75° (ENE) 00:51:41 437.525
DUCHIFAT 1 06 Aug 00:43:44 00:48:00 70° 102° (ESE) 00:52:16 145.980
SWISSCUBE 06 Aug 00:48:15 00:50:24 13° 59° (ENE) 00:52:46 437.505
NANOSAT C BR1 06 Aug 00:50:10 00:54:28 85° 104° (ESE) 00:58:44 145.865
QB50P1 06 Aug 00:51:09 00:55:27 88° 103° (ESE) 00:59:44 145.935-145.965
UNISAT 6 06 Aug 01:07:27 01:11:33 29° 292° (WNW) 01:15:34 437.425
ITUPSAT 1 06 Aug 01:10:33 01:13:51 19° 62° (ENE) 01:17:17 437.325
VELOX 1 06 Aug 01:10:38 01:12:31 12° 273° (W) 01:14:09 145.980
BUGSAT 1 06 Aug 01:27:47 01:31:50 59° 287° (WNW) 01:35:53 437.445
M-CUBED/EXP-1 PRIME 06 Aug 01:33:36 01:34:18 10° 310° (NW) 01:34:46 437.505
Cosmos 2504 06 Aug 01:35:47 01:40:11 18° 77° (ENE) 01:45:07 435.465 / 435.565
POLYITAN 1 06 Aug 01:37:30 01:41:19 31° 291° (WNW) 01:45:04 437.675
BEESAT 2 06 Aug 01:37:44 01:39:36 12° 329° (NNW) 01:41:21 435.950
TIGRISAT 06 Aug 01:49:55 01:52:19 14° 299° (WNW) 01:54:31 435.000
POPSAT HIP 1 06 Aug 01:52:41 01:56:05 23° 294° (WNW) 01:59:24 437.405
O/OREOS (USA 219) 06 Aug 01:53:08 01:57:37 69° 296° (WNW) 02:02:08 437.305
ANTELSAT 06 Aug 01:54:27 01:56:24 12° 301° (WNW) 01:58:09 437.575/2403.000
Cosmos 2491 06 Aug 02:00:36 02:06:23 19° 282° (WNW) 02:11:42 435.465 / 435.565
BEESAT 06 Aug 02:01:35 02:06:15 55° 71° (ENE) 02:10:57 436.000
QB50P2 06 Aug 02:02:05 02:05:06 18° 296° (WNW) 02:07:59 145.880/145.840
ISS 06 Aug 02:06:24 02:09:39 75° 213° (SSW) 02:12:54 145.825
AIST 2 06 Aug 02:06:37 02:09:51 20° 322° (NW) 02:13:03 435.215
TISAT 1 06 Aug 02:10:55 02:14:09 21° 267° (W) 02:17:19 437.305
RS-15 06 Aug 02:19:55 02:29:16 28° 0° (N) 02:38:59 29.354- 29.394
YUBILEINY 06 Aug 02:20:49 02:28:48 37° 293° (WNW) 02:36:42 435.215
DUCHIFAT 1 06 Aug 02:21:13 02:23:19 13° 298° (WNW) 02:25:14 145.980
SPROUT 06 Aug 02:22:45 02:24:05 11° 273° (W) 02:25:11 437.525
SWISSCUBE 06 Aug 02:22:49 02:27:38 87° 257° (WSW) 02:32:28 437.505
STARS 06 Aug 02:27:23 02:28:41 11° 59° (ENE) 02:30:11 437.465
NANOSAT C BR1 06 Aug 02:28:19 02:29:42 11° 300° (WNW) 02:30:54 145.865
QB50P1 06 Aug 02:29:32 02:30:42 11° 300° (WNW) 02:31:41 145.935-145.965
Oscar 19 06 Aug 02:29:56 02:34:46 38° 97° (E) 02:39:37 437.125/150
Gurwin Techsat 1B 06 Aug 02:34:14 02:36:40 14° 86° (E) 02:39:24 435.225
ITUPSAT 1 06 Aug 02:46:37 02:51:22 57° 260° (W) 02:56:07 437.325
KKS-1 06 Aug 03:04:30 03:08:38 41° 70° (ENE) 03:12:49 437.445
Cosmos 2504 06 Aug 03:23:59 03:31:15 89° 277° (W) 03:39:11 435.465 / 435.565
O/OREOS (USA 219) 06 Aug 03:36:50 03:38:01 11° 317° (NW) 03:39:01 437.305
BEESAT 06 Aug 03:41:08 03:44:29 18° 270° (W) 03:47:41 436.000
ISS 06 Aug 03:44:39 03:45:37 11° 228° (SW) 03:46:27 145.825
AO-7 06 Aug 03:56:51 04:01:38 17° 86° (E) 04:06:53 29.400- 29.500
STARS 06 Aug 04:00:08 04:04:30 88° 259° (W) 04:08:55 437.465
ITAMSAT 1 06 Aug 04:02:41 04:07:54 72° 104° (ESE) 04:13:03 435.822/435.867
SWISSCUBE 06 Aug 04:05:51 04:06:19 10° 275° (W) 04:06:29 437.505
JAS-2 06 Aug 04:08:12 04:15:42 46° 95° (E) 04:23:01 435.910
Oscar 19 06 Aug 04:09:30 04:14:01 30° 294° (WNW) 04:18:28 437.125/150
Gurwin Techsat 1B 06 Aug 04:12:05 04:17:26 84° 287° (WNW) 04:22:45 435.225
MOZHAYETS 4 06 Aug 04:33:52 04:38:16 44° 71° (ENE) 04:42:43
KKS-1 06 Aug 04:42:03 04:45:28 21° 268° (W) 04:48:48 437.445
CUSAT 1 06 Aug 04:47:03 04:49:39 60° 282° (WNW) 04:52:16 437.405
